Location: Amsterdam
(30.7274°N, 84.4357°W)
Time: 12:37:04
(UTC+00:00)

Tiros 1 - Pass Details

Date: 24 February 2026
Orbit: 618 x 650 km, 48.4° (Epoch: 16 March)

Event Time Altitude Azimuth Distance (km) Brightness Sun altitude
Rises 11:54:05 0° 258° (WSW) 2,929 - -4.1°
Exits shadow 11:54:59 - 261° (W) 2,603 9.6 -3.9°
Reaches altitude 10° 11:56:43 10° 271° (W) 2,017 9.0 -3.5°
Maximum altitude 12:00:40 27° 329° (NNW) 1,216 8.3 -2.7°
Drops below altitude 10° 12:04:36 10° 28° (NNE) 2,003 9.9 -1.9°
Sets 12:07:12 0° 40° (NE) 2,906 11.0 -1.3°
